Time,TemperatureF,DewpointF,PressureIn,WindDirection,WindDirectionDegrees,WindSpeedMPH,WindSpeedGustMPH,Humidity,HourlyPrecipIn,Conditions,Clouds,dailyrainin,SolarRadiationWatts/m^2,SoftwareType,DateUTC
2013-01-18 00:03:00,30.5,25.0,30.32,SSE,165,0.0,2.0,81,0.00,,,0.00,0,Custom,2013-01-18 06:03:00,
2013-01-18 00:08:00,30.1,25.0,30.32,SSE,165,0.0,2.0,80,0.00,,,0.00,0,Custom,2013-01-18 06:08:00,
2013-01-18 00:13:00,30.9,26.0,30.32,South,175,0.0,4.0,82,0.00,,,0.00,0,Custom,2013-01-18 06:13:00,
2013-01-18 00:18:00,30.5,25.0,30.32,South,175,2.0,2.0,80,0.00,,,0.00,0,Custom,2013-01-18 06:18:00,
2013-01-18 00:23:00,30.9,26.0,30.32,South,175,0.0,4.0,81,0.00,,,0.00,0,Custom,2013-01-18 06:23:00,
2013-01-18 00:28:00,31.1,26.0,30.32,South,178,2.0,5.0,81,0.00,,,0.00,0,Custom,2013-01-18 06:28:00,
2013-01-18 00:33:00,31.5,26.0,30.32,South,180,0.0,3.0,81,0.00,,,0.00,0,Custom,2013-01-18 06:33:00,
2013-01-18 00:38:00,31.5,26.0,30.32,South,180,0.0,3.0,80,0.00,,,0.00,0,Custom,2013-01-18 06:38:00,
2013-01-18 00:43:00,31.3,26.0,30.32,South,180,3.0,3.0,80,0.00,,,0.00,0,Custom,2013-01-18 06:43:00,
2013-01-18 00:48:00,31.4,26.0,30.32,South,185,3.0,4.0,80,0.00,,,0.00,0,Custom,2013-01-18 06:48:00,
2013-01-18 00:53:00,31.8,26.0,30.32,South,186,4.0,5.0,80,0.00,,,0.00,0,Custom,2013-01-18 06:53:00,
2013-01-18 00:58:00,32.0,26.0,30.32,South,186,5.0,5.0,80,0.00,,,0.00,0,Custom,2013-01-18 06:58:00,
2013-01-18 01:03:00,31.9,26.0,30.32,SSW,193,1.0,4.0,79,0.00,,,0.00,0,Custom,2013-01-18 07:03:00,
2013-01-18 01:08:00,31.9,26.0,30.32,SSW,193,2.0,4.0,80,0.00,,,0.00,0,Custom,2013-01-18 07:08:00,
2013-01-18 01:13:00,31.9,26.0,30.32,SSW,193,2.0,3.0,80,0.00,,,0.00,0,Custom,2013-01-18 07:13:00,
2013-01-18 01:18:00,32.1,27.0,30.32,South,181,1.0,5.0,80,0.00,,,0.00,0,Custom,2013-01-18 07:18:00,
2013-01-18 01:23:00,31.9,26.0,30.32,SSE,168,2.0,3.0,79,0.00,,,0.00,0,Custom,2013-01-18 07:23:00,
2013-01-18 01:28:00,32.0,26.0,30.32,South,181,0.0,5.0,79,0.00,,,0.00,0,Custom,2013-01-18 07:28:00,
2013-01-18 01:33:00,31.4,26.0,30.32,South,181,0.0,1.0,79,0.00,,,0.00,0,Custom,2013-01-18 07:33:00,
2013-01-18 01:39:00,31.2,26.0,30.32,South,182,0.0,3.0,80,0.00,,,0.00,0,Custom,2013-01-18 07:39:00,
2013-01-18 01:44:00,31.0,26.0,30.32,South,183,0.0,2.0,80,0.00,,,0.00,0,Custom,2013-01-18 07:44:00,
2013-01-18 01:49:00,30.5,25.0,30.32,South,183,1.0,1.0,81,0.00,,,0.00,0,Custom,2013-01-18 07:49:00,
2013-01-18 01:54:00,30.2,25.0,30.32,South,183,0.0,1.0,81,0.00,,,0.00,0,Custom,2013-01-18 07:54:00,
2013-01-18 01:59:00,30.1,25.0,30.32,South,183,3.0,3.0,81,0.00,,,0.00,0,Custom,2013-01-18 07:59:00,
2013-01-18 02:04:00,30.8,26.0,30.32,SSW,193,0.0,5.0,82,0.00,,,0.00,0,Custom,2013-01-18 08:04:00,
2013-01-18 02:09:00,31.0,26.0,30.32,SSW,193,3.0,3.0,82,0.00,,,0.00,0,Custom,2013-01-18 08:09:00,
2013-01-18 02:14:00,31.5,26.0,30.32,South,183,3.0,4.0,81,0.00,,,0.00,0,Custom,2013-01-18 08:14:00,
2013-01-18 02:19:00,31.8,27.0,30.32,South,176,0.0,4.0,81,0.00,,,0.00,0,Custom,2013-01-18 08:19:00,
2013-01-18 02:24:00,31.7,26.0,30.31,SW,218,3.0,3.0,80,0.00,,,0.00,0,Custom,2013-01-18 08:24:00,
2013-01-18 02:29:00,32.1,27.0,30.31,SSW,194,3.0,5.0,81,0.00,,,0.00,0,Custom,2013-01-18 08:29:00,
2013-01-18 02:34:00,32.2,27.0,30.31,South,188,4.0,6.0,80,0.00,,,0.00,0,Custom,2013-01-18 08:34:00,
2013-01-18 02:39:00,32.1,27.0,30.31,South,190,3.0,5.0,80,0.00,,,0.00,0,Custom,2013-01-18 08:39:00,
2013-01-18 02:44:00,32.8,27.0,30.31,South,177,4.0,5.0,80,0.00,,,0.00,0,Custom,2013-01-18 08:44:00,
2013-01-18 02:49:00,32.1,26.0,30.31,SSW,193,5.0,5.0,79,0.00,,,0.00,0,Custom,2013-01-18 08:49:00,
2013-01-18 02:54:00,32.6,27.0,30.31,SSW,192,3.0,5.0,79,0.00,,,0.00,0,Custom,2013-01-18 08:54:00,
2013-01-18 02:59:00,33.2,28.0,30.31,SSW,201,6.0,8.0,80,0.00,,,0.00,0,Custom,2013-01-18 08:59:00,
2013-01-18 03:04:00,33.2,27.0,30.31,SSW,197,4.0,5.0,78,0.00,,,0.00,0,Custom,2013-01-18 09:04:00,
2013-01-18 03:09:00,33.6,28.0,30.30,South,178,2.0,7.0,78,0.00,,,0.00,0,Custom,2013-01-18 09:09:00,
2013-01-18 03:14:00,33.4,27.0,30.30,South,172,2.0,6.0,78,0.00,,,0.00,0,Custom,2013-01-18 09:14:00,
2013-01-18 03:19:00,33.3,27.0,30.30,South,182,1.0,6.0,77,0.00,,,0.00,0,Custom,2013-01-18 09:19:00,
2013-01-18 03:24:00,33.2,27.0,30.30,South,184,4.0,5.0,78,0.00,,,0.00,0,Custom,2013-01-18 09:24:00,
2013-01-18 03:29:00,33.2,27.0,30.30,SSW,194,5.0,7.0,78,0.00,,,0.00,0,Custom,2013-01-18 09:29:00,
2013-01-18 03:34:00,32.8,27.0,30.30,SSW,194,3.0,5.0,78,0.00,,,0.00,0,Custom,2013-01-18 09:34:00,
2013-01-18 03:39:00,33.0,27.0,30.29,South,184,0.0,5.0,79,0.00,,,0.00,0,Custom,2013-01-18 09:39:00,
2013-01-18 03:44:00,32.9,27.0,30.29,South,189,3.0,5.0,78,0.00,,,0.00,0,Custom,2013-01-18 09:44:00,
2013-01-18 03:49:00,32.7,27.0,30.29,SSW,198,5.0,5.0,78,0.00,,,0.00,0,Custom,2013-01-18 09:49:00,
2013-01-18 03:54:00,33.0,27.0,30.29,South,174,4.0,4.0,79,0.00,,,0.00,0,Custom,2013-01-18 09:54:00,
2013-01-18 03:59:00,33.0,27.0,30.29,South,189,0.0,4.0,78,0.00,,,0.00,0,Custom,2013-01-18 09:59:00,
2013-01-18 04:04:00,32.7,27.0,30.29,SW,218,3.0,3.0,78,0.00,,,0.00,0,Custom,2013-01-18 10:04:00,
2013-01-18 04:09:00,33.2,27.0,30.29,SSW,202,3.0,6.0,79,0.00,,,0.00,0,Custom,2013-01-18 10:09:00,
2013-01-18 04:14:00,33.1,27.0,30.29,SW,215,0.0,9.0,78,0.00,,,0.00,0,Custom,2013-01-18 10:14:00,
2013-01-18 04:19:00,32.7,27.0,30.28,SSE,168,4.0,5.0,78,0.00,,,0.00,0,Custom,2013-01-18 10:19:00,
2013-01-18 04:24:00,33.0,27.0,30.28,SW,226,2.0,4.0,79,0.00,,,0.00,0,Custom,2013-01-18 10:24:00,
2013-01-18 04:29:00,32.4,26.0,30.28,South,180,0.0,4.0,78,0.00,,,0.00,0,Custom,2013-01-18 10:29:00,
2013-01-18 04:34:00,32.2,26.0,30.28,South,183,0.0,3.0,79,0.00,,,0.00,0,Custom,2013-01-18 10:34:00,
2013-01-18 04:39:00,31.8,26.0,30.28,SSW,192,4.0,4.0,79,0.00,,,0.00,0,Custom,2013-01-18 10:39:00,
2013-01-18 04:44:00,31.8,26.0,30.28,SW,223,4.0,5.0,80,0.00,,,0.00,0,Custom,2013-01-18 10:44:00,
2013-01-18 04:49:00,32.1,27.0,30.28,South,174,0.0,4.0,80,0.00,,,0.00,0,Custom,2013-01-18 10:49:00,
2013-01-18 04:54:00,31.5,26.0,30.27,SSW,192,3.0,4.0,80,0.00,,,0.00,0,Custom,2013-01-18 10:54:00,
2013-01-18 04:59:00,31.9,26.0,30.27,SSW,199,0.0,4.0,80,0.00,,,0.00,0,Custom,2013-01-18 10:59:00,
2013-01-18 05:04:00,32.1,27.0,30.27,SSW,198,2.0,5.0,80,0.00,,,0.00,0,Custom,2013-01-18 11:04:00,
2013-01-18 05:09:00,32.0,27.0,30.26,SSW,196,6.0,6.0,80,0.00,,,0.00,0,Custom,2013-01-18 11:09:00,
2013-01-18 05:14:00,31.8,27.0,30.26,SSE,164,4.0,6.0,80,0.00,,,0.00,0,Custom,2013-01-18 11:14:00,
2013-01-18 05:19:00,31.6,26.0,30.26,South,184,3.0,4.0,80,0.00,,,0.00,0,Custom,2013-01-18 11:19:00,
2013-01-18 05:24:00,31.5,26.0,30.26,SSW,193,0.0,4.0,80,0.00,,,0.00,0,Custom,2013-01-18 11:24:00,
2013-01-18 05:29:00,32.1,27.0,30.26,SSW,199,0.0,8.0,81,0.00,,,0.00,0,Custom,2013-01-18 11:29:00,
2013-01-18 05:34:00,32.1,27.0,30.25,SSW,197,6.0,6.0,80,0.00,,,0.00,0,Custom,2013-01-18 11:34:00,
2013-01-18 05:39:00,32.2,26.0,30.25,SW,228,5.0,5.0,79,0.00,,,0.00,0,Custom,2013-01-18 11:39:00,
2013-01-18 05:44:00,32.5,27.0,30.25,SSW,197,5.0,5.0,79,0.00,,,0.00,0,Custom,2013-01-18 11:44:00,
2013-01-18 05:49:00,32.6,27.0,30.25,SSW,196,5.0,5.0,79,0.00,,,0.00,0,Custom,2013-01-18 11:49:00,
2013-01-18 05:54:00,32.7,27.0,30.25,South,187,5.0,5.0,79,0.00,,,0.00,0,Custom,2013-01-18 11:54:00,
2013-01-18 05:59:00,32.9,27.0,30.24,SSW,204,3.0,6.0,79,0.00,,,0.00,0,Custom,2013-01-18 11:59:00,
2013-01-18 06:04:00,32.7,27.0,30.24,South,186,2.0,4.0,78,0.00,,,0.00,0,Custom,2013-01-18 12:04:00,
2013-01-18 06:09:00,32.8,27.0,30.24,South,181,2.0,9.0,78,0.00,,,0.00,0,Custom,2013-01-18 12:09:00,
2013-01-18 06:14:00,32.8,27.0,30.24,South,172,2.0,5.0,78,0.00,,,0.00,0,Custom,2013-01-18 12:14:00,
2013-01-18 06:19:00,33.0,27.0,30.24,WSW,239,3.0,5.0,78,0.00,,,0.00,0,Custom,2013-01-18 12:19:00,
2013-01-18 06:24:00,32.9,27.0,30.24,South,186,3.0,5.0,78,0.00,,,0.00,0,Custom,2013-01-18 12:24:00,
2013-01-18 06:29:00,32.7,26.0,30.24,SSE,167,5.0,7.0,78,0.00,,,0.00,0,Custom,2013-01-18 12:29:00,
2013-01-18 06:34:00,33.1,27.0,30.24,South,185,4.0,7.0,78,0.00,,,0.00,0,Custom,2013-01-18 12:34:00,
2013-01-18 06:39:00,33.2,27.0,30.24,SSW,209,2.0,7.0,77,0.00,,,0.00,0,Custom,2013-01-18 12:39:00,
2013-01-18 06:44:00,33.1,27.0,30.24,South,178,1.0,5.0,77,0.00,,,0.00,0,Custom,2013-01-18 12:44:00,
2013-01-18 06:49:00,33.2,27.0,30.24,South,188,0.0,12.0,77,0.00,,,0.00,0,Custom,2013-01-18 12:49:00,
2013-01-18 06:54:00,32.6,26.0,30.24,SSW,192,6.0,6.0,78,0.00,,,0.00,0,Custom,2013-01-18 12:54:00,
2013-01-18 06:59:00,32.8,27.0,30.24,SSW,193,2.0,5.0,78,0.00,,,0.00,0,Custom,2013-01-18 12:59:00,
2013-01-18 07:04:00,32.7,26.0,30.24,SSW,192,3.0,4.0,77,0.00,,,0.00,0,Custom,2013-01-18 13:04:00,
2013-01-18 07:09:00,32.0,26.0,30.24,SSW,204,6.0,6.0,77,0.00,,,0.00,0,Custom,2013-01-18 13:09:00,
2013-01-18 07:14:00,32.4,26.0,30.24,SSW,208,2.0,8.0,78,0.00,,,0.00,0,Custom,2013-01-18 13:14:00,
2013-01-18 07:19:00,32.3,26.0,30.24,South,184,2.0,4.0,78,0.00,,,0.00,0,Custom,2013-01-18 13:19:00,
2013-01-18 07:24:00,32.8,27.0,30.24,South,190,3.0,4.0,78,0.00,,,0.00,0,Custom,2013-01-18 13:24:00,
2013-01-18 07:29:00,32.5,26.0,30.24,South,184,2.0,4.0,78,0.00,,,0.00,0,Custom,2013-01-18 13:29:00,
2013-01-18 07:34:00,32.8,27.0,30.24,SSW,194,5.0,5.0,78,0.00,,,0.00,0,Custom,2013-01-18 13:34:00,
2013-01-18 07:39:00,32.8,27.0,30.24,South,189,0.0,4.0,78,0.00,,,0.00,0,Custom,2013-01-18 13:39:00,
2013-01-18 07:44:00,32.9,27.0,30.24,South,191,5.0,9.0,77,0.00,,,0.00,0,Custom,2013-01-18 13:44:00,
2013-01-18 07:49:00,33.1,27.0,30.23,South,172,5.0,7.0,78,0.00,,,0.00,8.19,Custom,2013-01-18 13:49:00,
2013-01-18 07:54:00,33.4,27.0,30.23,South,185,5.0,7.0,77,0.00,,,0.00,10.14,Custom,2013-01-18 13:54:00,
2013-01-18 07:59:00,33.6,27.0,30.23,South,190,3.0,7.0,77,0.00,,,0.00,12.09,Custom,2013-01-18 13:59:00,
2013-01-18 08:04:00,33.8,27.0,30.23,South,188,7.0,7.0,76,0.00,,,0.00,13.65,Custom,2013-01-18 14:04:00,
2013-01-18 08:09:00,34.2,27.0,30.22,SSW,213,9.0,9.0,76,0.00,,,0.00,17.16,Custom,2013-01-18 14:09:00,
2013-01-18 08:14:00,34.7,27.0,30.22,SSW,194,5.0,8.0,74,0.00,,,0.00,19.5,Custom,2013-01-18 14:14:00,
2013-01-18 08:19:00,35.4,28.0,30.21,South,189,4.0,9.0,73,0.00,,,0.00,22.23,Custom,2013-01-18 14:19:00,
2013-01-18 08:24:00,35.7,27.0,30.21,SSW,211,7.0,10.0,71,0.00,,,0.00,22.23,Custom,2013-01-18 14:24:00,
2013-01-18 08:29:00,36.0,28.0,30.21,South,189,11.0,11.0,71,0.00,,,0.00,23.4,Custom,2013-01-18 14:29:00,
2013-01-18 08:34:00,36.6,28.0,30.21,South,191,5.0,10.0,69,0.00,,,0.00,34.71,Custom,2013-01-18 14:34:00,
2013-01-18 08:39:00,37.0,28.0,30.21,SSW,203,8.0,12.0,69,0.00,,,0.00,20.28,Custom,2013-01-18 14:39:00,
2013-01-18 08:44:00,36.7,28.0,30.21,SSW,200,6.0,9.0,70,0.00,,,0.00,20.28,Custom,2013-01-18 14:44:00,
2013-01-18 08:49:00,37.2,28.0,30.20,SSW,197,5.0,11.0,70,0.00,,,0.00,23.79,Custom,2013-01-18 14:49:00,
2013-01-18 08:54:00,37.5,29.0,30.21,SSW,193,0.0,11.0,71,0.00,,,0.00,21.06,Custom,2013-01-18 14:54:00,
2013-01-18 08:59:00,38.1,29.0,30.21,SSW,201,4.0,10.0,70,0.00,,,0.00,24.18,Custom,2013-01-18 14:59:00,
2013-01-18 09:04:00,38.9,29.0,30.20,SSE,164,7.0,13.0,68,0.00,,,0.00,26.52,Custom,2013-01-18 15:04:00,
2013-01-18 09:09:00,39.2,29.0,30.20,South,183,6.0,12.0,68,0.00,,,0.00,23.79,Custom,2013-01-18 15:09:00,
2013-01-18 09:14:00,40.0,30.0,30.19,South,181,14.0,14.0,67,0.00,,,0.00,88.14,Custom,2013-01-18 15:14:00,
2013-01-18 09:19:00,40.8,30.0,30.19,SSW,208,7.0,13.0,65,0.00,,,0.00,124.41,Custom,2013-01-18 15:19:00,
2013-01-18 09:24:00,41.5,30.0,30.19,SSE,155,8.0,11.0,63,0.00,,,0.00,209.43,Custom,2013-01-18 15:24:00,
2013-01-18 09:29:00,42.6,31.0,30.19,SSW,198,8.0,11.0,63,0.00,,,0.00,221.91,Custom,2013-01-18 15:29:00,
2013-01-18 09:34:00,42.8,30.0,30.19,SSW,196,9.0,16.0,61,0.00,,,0.00,236.73,Custom,2013-01-18 15:34:00,
2013-01-18 09:39:00,43.4,31.0,30.19,SSW,205,16.0,16.0,60,0.00,,,0.00,252.33,Custom,2013-01-18 15:39:00,
2013-01-18 09:44:00,43.8,30.0,30.19,SSW,199,4.0,16.0,59,0.00,,,0.00,263.64,Custom,2013-01-18 15:44:00,
2013-01-18 09:49:00,43.7,31.0,30.18,SW,215,8.0,17.0,60,0.00,,,0.00,274.56,Custom,2013-01-18 15:49:00,
2013-01-18 09:54:00,44.4,31.0,30.18,SSW,200,3.0,16.0,58,0.00,,,0.00,287.43,Custom,2013-01-18 15:54:00,
2013-01-18 09:59:00,44.5,31.0,30.18,South,183,14.0,18.0,58,0.00,,,0.00,295.62,Custom,2013-01-18 15:59:00,
2013-01-18 10:04:00,44.9,31.0,30.18,SW,227,8.0,16.0,58,0.00,,,0.00,310.83,Custom,2013-01-18 16:04:00,
2013-01-18 10:09:00,45.5,31.0,30.18,SSW,200,5.0,15.0,57,0.00,,,0.00,297.96,Custom,2013-01-18 16:09:00,
2013-01-18 10:14:00,46.5,31.0,30.18,SSW,207,7.0,12.0,55,0.00,,,0.00,323.7,Custom,2013-01-18 16:14:00,
2013-01-18 10:19:00,46.3,31.0,30.17,SSW,196,5.0,16.0,55,0.00,,,0.00,341.25,Custom,2013-01-18 16:19:00,
2013-01-18 10:24:00,46.7,31.0,30.17,SSW,193,9.0,16.0,55,0.00,,,0.00,352.17,Custom,2013-01-18 16:24:00,
2013-01-18 10:29:00,47.3,32.0,30.17,SSW,197,9.0,14.0,55,0.00,,,0.00,359.58,Custom,2013-01-18 16:29:00,
2013-01-18 10:34:00,47.9,32.0,30.16,South,187,8.0,12.0,54,0.00,,,0.00,309.27,Custom,2013-01-18 16:34:00,
2013-01-18 10:39:00,47.5,31.0,30.16,SSW,197,7.0,18.0,53,0.00,,,0.00,333.84,Custom,2013-01-18 16:39:00,
2013-01-18 10:44:00,48.1,32.0,30.16,SSE,166,13.0,18.0,54,0.00,,,0.00,193.83,Custom,2013-01-18 16:44:00,
2013-01-18 10:49:00,48.7,33.0,30.15,South,189,9.0,17.0,54,0.00,,,0.00,235.17,Custom,2013-01-18 16:49:00,
2013-01-18 10:54:00,48.7,32.0,30.15,South,179,7.0,17.0,53,0.00,,,0.00,230.1,Custom,2013-01-18 16:54:00,
2013-01-18 10:59:00,49.9,33.0,30.14,South,187,10.0,13.0,52,0.00,,,0.00,357.24,Custom,2013-01-18 16:59:00,
2013-01-18 11:04:00,50.0,33.0,30.14,South,182,6.0,15.0,52,0.00,,,0.00,418.08,Custom,2013-01-18 17:04:00,
2013-01-18 11:09:00,49.6,32.0,30.14,SW,218,7.0,17.0,51,0.00,,,0.00,431.34,Custom,2013-01-18 17:09:00,
2013-01-18 11:14:00,50.2,33.0,30.14,SSW,199,12.0,16.0,52,0.00,,,0.00,429,Custom,2013-01-18 17:14:00,
2013-01-18 11:19:00,50.8,34.0,30.14,South,178,7.0,18.0,52,0.00,,,0.00,434.07,Custom,2013-01-18 17:19:00,
2013-01-18 11:24:00,51.1,33.0,30.13,SSW,200,9.0,15.0,50,0.00,,,0.00,440.7,Custom,2013-01-18 17:24:00,
2013-01-18 11:29:00,51.2,33.0,30.13,South,181,8.0,12.0,50,0.00,,,0.00,448.5,Custom,2013-01-18 17:29:00,
2013-01-18 11:34:00,51.4,33.0,30.12,South,176,13.0,19.0,50,0.00,,,0.00,455.13,Custom,2013-01-18 17:34:00,
2013-01-18 11:40:00,51.7,33.0,30.11,SSW,198,9.0,17.0,49,0.00,,,0.00,455.13,Custom,2013-01-18 17:40:00,
2013-01-18 11:45:00,53.0,34.0,30.11,SSW,213,6.0,17.0,48,0.00,,,0.00,465.66,Custom,2013-01-18 17:45:00,
2013-01-18 11:50:00,53.7,34.0,30.10,SSW,194,7.0,17.0,47,0.00,,,0.00,462.15,Custom,2013-01-18 17:50:00,
2013-01-18 11:55:00,53.0,33.0,30.10,South,184,11.0,17.0,47,0.00,,,0.00,469.95,Custom,2013-01-18 17:55:00,
2013-01-18 12:00:00,54.5,35.0,30.09,SW,226,12.0,21.0,48,0.00,,,0.00,466.44,Custom,2013-01-18 18:00:00,
2013-01-18 12:05:00,53.6,33.0,30.09,SSW,195,13.0,14.0,46,0.00,,,0.00,471.12,Custom,2013-01-18 18:05:00,
2013-01-18 12:10:00,54.3,34.0,30.09,SSW,200,7.0,14.0,46,0.00,,,0.00,474.63,Custom,2013-01-18 18:10:00,
2013-01-18 12:15:00,54.5,34.0,30.08,South,170,9.0,19.0,46,0.00,,,0.00,475.02,Custom,2013-01-18 18:15:00,
2013-01-18 12:20:00,54.7,33.0,30.08,SSW,194,7.0,12.0,44,0.00,,,0.00,475.02,Custom,2013-01-18 18:20:00,
2013-01-18 12:25:00,54.2,33.0,30.08,SSW,204,7.0,16.0,45,0.00,,,0.00,477.36,Custom,2013-01-18 18:25:00,
2013-01-18 12:30:00,54.3,34.0,30.06,South,191,10.0,15.0,45,0.00,,,0.00,471.12,Custom,2013-01-18 18:30:00,
2013-01-18 12:35:00,54.7,34.0,30.06,SSW,205,10.0,25.0,45,0.00,,,0.00,472.68,Custom,2013-01-18 18:35:00,
2013-01-18 12:40:00,55.2,34.0,30.05,South,186,11.0,16.0,45,0.00,,,0.00,473.85,Custom,2013-01-18 18:40:00,
2013-01-18 12:45:00,54.6,33.0,30.05,SSW,200,9.0,20.0,45,0.00,,,0.00,471.9,Custom,2013-01-18 18:45:00,
2013-01-18 12:50:00,55.4,34.0,30.05,SSW,197,10.0,15.0,44,0.00,,,0.00,473.85,Custom,2013-01-18 18:50:00,
2013-01-18 12:55:00,54.8,33.0,30.05,SW,222,8.0,19.0,44,0.00,,,0.00,469.95,Custom,2013-01-18 18:55:00,
2013-01-18 13:00:00,56.3,34.0,30.05,SSE,162,14.0,14.0,43,0.00,,,0.00,468.78,Custom,2013-01-18 19:00:00,
2013-01-18 13:05:00,55.6,33.0,30.05,SSE,161,7.0,18.0,43,0.00,,,0.00,468.78,Custom,2013-01-18 19:05:00,
2013-01-18 13:10:00,56.9,34.0,30.05,SSW,207,7.0,15.0,42,0.00,,,0.00,462.93,Custom,2013-01-18 19:10:00,
2013-01-18 13:15:00,56.2,32.0,30.04,SSW,200,6.0,16.0,40,0.00,,,0.00,454.35,Custom,2013-01-18 19:15:00,
2013-01-18 13:20:00,57.3,33.0,30.03,SSW,199,6.0,14.0,40,0.00,,,0.00,449.28,Custom,2013-01-18 19:20:00,
2013-01-18 13:25:00,56.8,33.0,30.04,SSW,200,8.0,16.0,41,0.00,,,0.00,450.84,Custom,2013-01-18 19:25:00,
2013-01-18 13:30:00,57.7,34.0,30.03,South,184,10.0,15.0,41,0.00,,,0.00,444.99,Custom,2013-01-18 19:30:00,
2013-01-18 13:35:00,58.1,33.0,30.03,WSW,245,9.0,13.0,39,0.00,,,0.00,434.85,Custom,2013-01-18 19:35:00,
2013-01-18 13:40:00,57.7,33.0,30.03,South,172,11.0,15.0,40,0.00,,,0.00,430.56,Custom,2013-01-18 19:40:00,
2013-01-18 13:45:00,58.0,33.0,30.03,South,183,7.0,15.0,39,0.00,,,0.00,426.66,Custom,2013-01-18 19:45:00,
2013-01-18 13:50:00,57.8,34.0,30.03,South,190,6.0,14.0,40,0.00,,,0.00,418.47,Custom,2013-01-18 19:50:00,
2013-01-18 13:55:00,58.6,33.0,30.01,SW,223,6.0,11.0,38,0.00,,,0.00,409.89,Custom,2013-01-18 19:55:00,
2013-01-18 14:00:00,58.6,34.0,30.01,SSW,193,8.0,14.0,39,0.00,,,0.00,400.53,Custom,2013-01-18 20:00:00,
2013-01-18 14:05:00,57.3,33.0,30.01,SSW,212,5.0,18.0,40,0.00,,,0.00,393.9,Custom,2013-01-18 20:05:00,
2013-01-18 14:10:00,57.2,33.0,30.01,SSW,207,8.0,12.0,40,0.00,,,0.00,381.81,Custom,2013-01-18 20:10:00,
2013-01-18 14:15:00,57.7,33.0,30.01,SSW,204,8.0,16.0,40,0.00,,,0.00,370.89,Custom,2013-01-18 20:15:00,
2013-01-18 14:20:00,58.4,34.0,30.01,West,260,3.0,16.0,40,0.00,,,0.00,366.6,Custom,2013-01-18 20:20:00,
2013-01-18 14:25:00,58.6,33.0,30.01,South,171,11.0,11.0,39,0.00,,,0.00,354.51,Custom,2013-01-18 20:25:00,
2013-01-18 14:30:00,59.0,34.0,30.01,South,189,7.0,14.0,38,0.00,,,0.00,351,Custom,2013-01-18 20:30:00,
2013-01-18 14:35:00,58.8,33.0,30.01,SSW,194,7.0,18.0,38,0.00,,,0.00,338.91,Custom,2013-01-18 20:35:00,
2013-01-18 14:40:00,58.0,33.0,30.00,WSW,240,11.0,15.0,39,0.00,,,0.00,330.72,Custom,2013-01-18 20:40:00,
2013-01-18 14:45:00,58.9,35.0,30.00,South,179,13.0,14.0,40,0.00,,,0.00,282.36,Custom,2013-01-18 20:45:00,
2013-01-18 14:50:00,58.7,33.0,29.99,SSW,193,4.0,16.0,38,0.00,,,0.00,300.69,Custom,2013-01-18 20:50:00,
2013-01-18 14:55:00,58.2,33.0,30.00,South,188,7.0,13.0,39,0.00,,,0.00,249.6,Custom,2013-01-18 20:55:00,
2013-01-18 15:00:00,58.2,34.0,30.00,South,189,4.0,17.0,40,0.00,,,0.00,251.55,Custom,2013-01-18 21:00:00,
2013-01-18 15:05:00,58.0,33.0,29.99,SSW,196,10.0,16.0,39,0.00,,,0.00,212.94,Custom,2013-01-18 21:05:00,
2013-01-18 15:10:00,57.7,33.0,29.99,South,181,6.0,15.0,40,0.00,,,0.00,144.3,Custom,2013-01-18 21:10:00,
2013-01-18 15:15:00,57.5,33.0,29.99,WSW,246,5.0,14.0,40,0.00,,,0.00,209.82,Custom,2013-01-18 21:15:00,
2013-01-18 15:20:00,57.3,34.0,29.98,SSW,197,10.0,13.0,41,0.00,,,0.00,218.4,Custom,2013-01-18 21:20:00,
2013-01-18 15:25:00,57.7,34.0,29.98,South,181,8.0,16.0,40,0.00,,,0.00,86.19,Custom,2013-01-18 21:25:00,
2013-01-18 15:30:00,57.9,34.0,29.98,South,172,5.0,12.0,40,0.00,,,0.00,114.66,Custom,2013-01-18 21:30:00,
2013-01-18 15:35:00,57.3,34.0,29.98,South,175,9.0,16.0,41,0.00,,,0.00,159.12,Custom,2013-01-18 21:35:00,
2013-01-18 15:40:00,57.2,34.0,29.98,SE,145,7.0,17.0,41,0.00,,,0.00,145.08,Custom,2013-01-18 21:40:00,
2013-01-18 15:45:00,57.2,34.0,29.98,South,191,9.0,14.0,41,0.00,,,0.00,129.09,Custom,2013-01-18 21:45:00,
2013-01-18 15:50:00,56.8,34.0,29.97,SW,225,4.0,14.0,42,0.00,,,0.00,135.33,Custom,2013-01-18 21:50:00,
2013-01-18 15:55:00,56.6,34.0,29.97,SSW,202,17.0,17.0,43,0.00,,,0.00,109.98,Custom,2013-01-18 21:55:00,
2013-01-18 16:00:00,56.5,35.0,29.96,South,190,12.0,16.0,43,0.00,,,0.00,104.91,Custom,2013-01-18 22:00:00,
2013-01-18 16:05:00,56.2,34.0,29.96,South,178,15.0,18.0,44,0.00,,,0.00,85.8,Custom,2013-01-18 22:05:00,
2013-01-18 16:10:00,56.1,34.0,29.96,SSW,206,15.0,18.0,44,0.00,,,0.00,72.54,Custom,2013-01-18 22:10:00,
2013-01-18 16:15:00,55.6,34.0,29.96,SW,222,5.0,16.0,44,0.00,,,0.00,23.79,Custom,2013-01-18 22:15:00,
2013-01-18 16:20:00,54.9,34.0,29.96,South,190,7.0,12.0,45,0.00,,,0.00,19.89,Custom,2013-01-18 22:20:00,
2013-01-18 16:25:00,54.4,34.0,29.96,SW,220,6.0,16.0,46,0.00,,,0.00,17.16,Custom,2013-01-18 22:25:00,
2013-01-18 16:30:00,54.1,34.0,29.96,SSE,152,7.0,17.0,47,0.00,,,0.00,14.82,Custom,2013-01-18 22:30:00,
2013-01-18 16:35:00,53.9,34.0,29.96,SW,214,7.0,16.0,46,0.00,,,0.00,13.65,Custom,2013-01-18 22:35:00,
2013-01-18 16:40:00,53.5,34.0,29.96,SW,214,8.0,14.0,47,0.00,,,0.00,13.26,Custom,2013-01-18 22:40:00,
2013-01-18 16:45:00,53.2,34.0,29.96,WSW,255,8.0,13.0,48,0.00,,,0.00,12.48,Custom,2013-01-18 22:45:00,
2013-01-18 16:50:00,53.0,34.0,29.96,South,188,5.0,12.0,48,0.00,,,0.00,11.31,Custom,2013-01-18 22:50:00,
2013-01-18 16:55:00,52.7,34.0,29.96,SSW,199,15.0,16.0,48,0.00,,,0.00,10.53,Custom,2013-01-18 22:55:00,
2013-01-18 17:00:00,52.5,34.0,29.97,South,172,5.0,14.0,49,0.00,,,0.00,8.97,Custom,2013-01-18 23:00:00,
2013-01-18 17:05:00,52.5,34.0,29.97,SSW,195,3.0,14.0,49,0.00,,,0.00,8.19,Custom,2013-01-18 23:05:00,
2013-01-18 17:10:00,52.1,34.0,29.97,SSW,194,6.0,11.0,50,0.00,,,0.00,0,Custom,2013-01-18 23:10:00,
2013-01-18 17:15:00,52.0,34.0,29.98,SSW,196,4.0,10.0,49,0.00,,,0.00,0,Custom,2013-01-18 23:15:00,
2013-01-18 17:20:00,51.9,34.0,29.97,South,187,6.0,12.0,50,0.00,,,0.00,0,Custom,2013-01-18 23:20:00,
2013-01-18 17:25:00,51.5,34.0,29.98,SW,221,4.0,9.0,51,0.00,,,0.00,0,Custom,2013-01-18 23:25:00,
2013-01-18 17:30:00,51.3,34.0,29.98,SW,234,1.0,10.0,50,0.00,,,0.00,0,Custom,2013-01-18 23:30:00,
2013-01-18 17:35:00,50.6,33.0,29.99,SSW,203,3.0,8.0,51,0.00,,,0.00,0,Custom,2013-01-18 23:35:00,
2013-01-18 17:40:00,49.9,33.0,29.99,South,190,4.0,8.0,52,0.00,,,0.00,0,Custom,2013-01-18 23:40:00,
2013-01-18 17:45:00,50.0,33.0,30.00,SSW,199,3.0,7.0,52,0.00,,,0.00,0,Custom,2013-01-18 23:45:00,
2013-01-18 17:50:00,49.7,33.0,29.99,South,191,4.0,5.0,52,0.00,,,0.00,0,Custom,2013-01-18 23:50:00,
2013-01-18 17:55:00,49.6,33.0,30.00,SSW,200,4.0,8.0,52,0.00,,,0.00,0,Custom,2013-01-18 23:55:00,
2013-01-18 18:00:00,48.6,32.0,30.00,SSW,203,2.0,6.0,53,0.00,,,0.00,0,Custom,2013-01-19 00:00:00,
2013-01-18 18:05:00,48.5,33.0,30.00,SSW,198,2.0,7.0,54,0.00,,,0.00,0,Custom,2013-01-19 00:05:00,
2013-01-18 18:10:00,48.0,33.0,30.00,SSW,196,0.0,7.0,55,0.00,,,0.00,0,Custom,2013-01-19 00:10:00,
2013-01-18 18:15:00,48.0,33.0,30.00,SSW,198,6.0,8.0,56,0.00,,,0.00,0,Custom,2013-01-19 00:15:00,
2013-01-18 18:20:00,47.9,33.0,29.99,SSW,202,4.0,7.0,56,0.00,,,0.00,0,Custom,2013-01-19 00:20:00,
2013-01-18 18:25:00,47.7,33.0,30.00,SSW,193,10.0,10.0,57,0.00,,,0.00,0,Custom,2013-01-19 00:25:00,
2013-01-18 18:30:00,48.2,33.0,30.00,SSW,199,4.0,12.0,56,0.00,,,0.00,0,Custom,2013-01-19 00:30:00,
2013-01-18 18:35:00,47.9,33.0,30.00,SSW,194,7.0,8.0,57,0.00,,,0.00,0,Custom,2013-01-19 00:35:00,
2013-01-18 18:40:00,47.8,33.0,29.99,SSW,195,10.0,10.0,57,0.00,,,0.00,0,Custom,2013-01-19 00:40:00,
2013-01-18 18:45:00,47.9,33.0,30.00,SSW,196,5.0,10.0,57,0.00,,,0.00,0,Custom,2013-01-19 00:45:00,
2013-01-18 18:50:00,47.8,33.0,30.00,SSW,193,6.0,10.0,57,0.00,,,0.00,0,Custom,2013-01-19 00:50:00,
2013-01-18 18:55:00,47.8,33.0,29.99,South,187,7.0,11.0,57,0.00,,,0.00,0,Custom,2013-01-19 00:55:00,
2013-01-18 19:00:00,47.5,33.0,29.98,SSW,201,6.0,14.0,57,0.00,,,0.00,0,Custom,2013-01-19 01:00:00,
2013-01-18 19:05:00,47.2,33.0,29.99,SSW,196,2.0,9.0,58,0.00,,,0.00,0,Custom,2013-01-19 01:05:00,
2013-01-18 19:10:00,47.2,33.0,29.99,South,190,3.0,12.0,58,0.00,,,0.00,0,Custom,2013-01-19 01:10:00,
2013-01-18 19:15:00,47.0,33.0,29.99,SSW,192,3.0,11.0,58,0.00,,,0.00,0,Custom,2013-01-19 01:15:00,
2013-01-18 19:20:00,46.6,33.0,29.99,SSW,199,3.0,10.0,59,0.00,,,0.00,0,Custom,2013-01-19 01:20:00,
2013-01-18 19:25:00,46.3,33.0,29.99,South,188,5.0,12.0,59,0.00,,,0.00,0,Custom,2013-01-19 01:25:00,
2013-01-18 19:30:00,45.8,33.0,29.99,SSW,199,7.0,9.0,60,0.00,,,0.00,0,Custom,2013-01-19 01:30:00,
2013-01-18 19:35:00,45.9,33.0,29.99,SSW,192,6.0,9.0,60,0.00,,,0.00,0,Custom,2013-01-19 01:35:00,
2013-01-18 19:40:00,46.0,33.0,29.99,SSW,195,3.0,12.0,60,0.00,,,0.00,0,Custom,2013-01-19 01:40:00,
2013-01-18 19:45:00,46.1,33.0,29.98,South,176,9.0,10.0,60,0.00,,,0.00,0,Custom,2013-01-19 01:45:00,
2013-01-18 19:50:00,46.2,33.0,29.98,SSW,195,7.0,10.0,60,0.00,,,0.00,0,Custom,2013-01-19 01:50:00,
2013-01-18 19:55:00,45.9,33.0,29.98,SSW,206,10.0,13.0,59,0.00,,,0.00,0,Custom,2013-01-19 01:55:00,
2013-01-18 20:00:00,46.1,33.0,29.98,SSW,198,3.0,13.0,60,0.00,,,0.00,0,Custom,2013-01-19 02:00:00,
2013-01-18 20:05:00,46.2,33.0,29.98,South,186,3.0,8.0,59,0.00,,,0.00,0,Custom,2013-01-19 02:05:00,
2013-01-18 20:10:00,45.6,32.0,29.98,South,183,7.0,8.0,59,0.00,,,0.00,0,Custom,2013-01-19 02:10:00,
2013-01-18 20:15:00,45.5,32.0,29.98,South,189,7.0,8.0,60,0.00,,,0.00,0,Custom,2013-01-19 02:15:00,
2013-01-18 20:20:00,45.1,32.0,29.98,South,187,4.0,9.0,60,0.00,,,0.00,0,Custom,2013-01-19 02:20:00,
2013-01-18 20:25:00,45.3,32.0,29.99,SSW,209,4.0,12.0,60,0.00,,,0.00,0,Custom,2013-01-19 02:25:00,
2013-01-18 20:30:00,44.7,32.0,29.99,South,190,4.0,6.0,60,0.00,,,0.00,0,Custom,2013-01-19 02:30:00,
2013-01-18 20:35:00,45.3,32.0,29.99,South,176,7.0,7.0,60,0.00,,,0.00,0,Custom,2013-01-19 02:35:00,
2013-01-18 20:40:00,45.3,32.0,29.98,SSW,197,5.0,10.0,59,0.00,,,0.00,0,Custom,2013-01-19 02:40:00,
2013-01-18 20:45:00,45.5,32.0,29.99,South,186,10.0,10.0,59,0.00,,,0.00,0,Custom,2013-01-19 02:45:00,
2013-01-18 20:50:00,45.0,32.0,29.98,SSW,196,7.0,10.0,60,0.00,,,0.00,0,Custom,2013-01-19 02:50:00,
2013-01-18 20:55:00,45.0,32.0,29.98,South,188,7.0,8.0,60,0.00,,,0.00,0,Custom,2013-01-19 02:55:00,
2013-01-18 21:00:00,45.1,32.0,29.98,South,187,2.0,8.0,60,0.00,,,0.00,0,Custom,2013-01-19 03:00:00,
2013-01-18 21:05:00,45.0,32.0,29.98,South,186,1.0,11.0,59,0.00,,,0.00,0,Custom,2013-01-19 03:05:00,
2013-01-18 21:10:00,44.8,31.0,29.98,SSW,200,3.0,11.0,59,0.00,,,0.00,0,Custom,2013-01-19 03:10:00,
2013-01-18 21:15:00,44.7,32.0,29.98,South,189,5.0,8.0,60,0.00,,,0.00,0,Custom,2013-01-19 03:15:00,
2013-01-18 21:20:00,44.7,32.0,29.98,SSW,206,3.0,10.0,60,0.00,,,0.00,0,Custom,2013-01-19 03:20:00,
2013-01-18 21:25:00,44.6,31.0,29.98,SSW,203,6.0,8.0,60,0.00,,,0.00,0,Custom,2013-01-19 03:25:00,
2013-01-18 21:30:00,44.8,32.0,29.98,South,176,8.0,10.0,60,0.00,,,0.00,0,Custom,2013-01-19 03:30:00,
2013-01-18 21:35:00,44.6,32.0,29.98,WSW,239,7.0,9.0,60,0.00,,,0.00,0,Custom,2013-01-19 03:35:00,
2013-01-18 21:40:00,44.9,32.0,29.98,SSW,193,10.0,10.0,60,0.00,,,0.00,0,Custom,2013-01-19 03:40:00,
2013-01-18 21:45:00,44.5,32.0,29.98,SW,219,4.0,10.0,60,0.00,,,0.00,0,Custom,2013-01-19 03:45:00,
2013-01-18 21:50:00,44.3,32.0,29.97,SSW,207,7.0,9.0,61,0.00,,,0.00,0,Custom,2013-01-19 03:50:00,
2013-01-18 21:55:00,44.2,32.0,29.98,SSW,196,4.0,10.0,62,0.00,,,0.00,0,Custom,2013-01-19 03:55:00,
2013-01-18 22:00:00,44.2,32.0,29.97,South,190,6.0,9.0,62,0.00,,,0.00,0,Custom,2013-01-19 04:00:00,
2013-01-18 22:05:00,44.4,32.0,29.96,SSW,209,2.0,11.0,61,0.00,,,0.00,0,Custom,2013-01-19 04:05:00,
2013-01-18 22:10:00,44.4,32.0,29.96,SSW,194,1.0,11.0,61,0.00,,,0.00,0,Custom,2013-01-19 04:10:00,
2013-01-18 22:15:00,44.1,32.0,29.96,South,186,4.0,11.0,62,0.00,,,0.00,0,Custom,2013-01-19 04:15:00,
2013-01-18 22:20:00,44.3,32.0,29.96,SW,231,4.0,9.0,62,0.00,,,0.00,0,Custom,2013-01-19 04:20:00,
2013-01-18 22:25:00,44.4,32.0,29.96,SSW,207,6.0,11.0,62,0.00,,,0.00,0,Custom,2013-01-19 04:25:00,
2013-01-18 22:30:00,44.4,32.0,29.96,South,188,7.0,17.0,61,0.00,,,0.00,0,Custom,2013-01-19 04:30:00,
2013-01-18 22:35:00,44.5,32.0,29.96,SSW,195,7.0,11.0,61,0.00,,,0.00,0,Custom,2013-01-19 04:35:00,
2013-01-18 22:40:00,44.3,32.0,29.96,SSW,196,6.0,10.0,62,0.00,,,0.00,0,Custom,2013-01-19 04:40:00,
2013-01-18 22:45:00,44.3,32.0,29.96,South,186,6.0,11.0,62,0.00,,,0.00,0,Custom,2013-01-19 04:45:00,
2013-01-18 22:50:00,44.3,32.0,29.96,SSW,209,3.0,13.0,61,0.00,,,0.00,0,Custom,2013-01-19 04:50:00,
2013-01-18 22:55:00,44.8,32.0,29.96,SSW,204,5.0,16.0,61,0.00,,,0.00,0,Custom,2013-01-19 04:55:00,
2013-01-18 23:01:00,44.9,32.0,29.96,South,182,10.0,15.0,61,0.00,,,0.00,0,Custom,2013-01-19 05:01:00,
2013-01-18 23:03:00,44.9,32.0,29.96,SSW,202,6.0,15.0,61,0.00,,,0.00,0,Custom,2013-01-19 05:03:00,
2013-01-18 23:04:00,44.7,32.0,29.96,South,183,7.0,15.0,61,0.00,,,0.00,0,Custom,2013-01-19 05:04:00,
2013-01-18 23:09:00,44.7,32.0,29.95,SW,215,5.0,11.0,61,0.00,,,0.00,0,Custom,2013-01-19 05:09:00,
2013-01-18 23:14:00,44.9,32.0,29.95,SSW,205,8.0,13.0,61,0.00,,,0.00,0,Custom,2013-01-19 05:14:00,
2013-01-18 23:19:00,45.2,32.0,29.95,SW,234,4.0,13.0,61,0.00,,,0.00,0,Custom,2013-01-19 05:19:00,
2013-01-18 23:24:00,44.9,32.0,29.95,SSW,195,7.0,11.0,61,0.00,,,0.00,0,Custom,2013-01-19 05:24:00,
2013-01-18 23:29:00,45.0,32.0,29.95,SSW,195,12.0,14.0,61,0.00,,,0.00,0,Custom,2013-01-19 05:29:00,
2013-01-18 23:34:00,45.0,32.0,29.95,SSW,194,5.0,14.0,61,0.00,,,0.00,0,Custom,2013-01-19 05:34:00,
2013-01-18 23:39:00,45.1,32.0,29.94,SSW,205,12.0,14.0,61,0.00,,,0.00,0,Custom,2013-01-19 05:39:00,
2013-01-18 23:44:00,45.4,33.0,29.93,South,174,11.0,18.0,61,0.00,,,0.00,0,Custom,2013-01-19 05:44:00,
2013-01-18 23:49:00,45.0,32.0,29.93,SSW,194,7.0,11.0,60,0.00,,,0.00,0,Custom,2013-01-19 05:49:00,
2013-01-18 23:54:00,45.0,32.0,29.94,SSW,202,8.0,13.0,60,0.00,,,0.00,0,Custom,2013-01-19 05:54:00,
2013-01-18 23:59:00,45.1,32.0,29.93,SSW,195,9.0,17.0,61,0.00,,,0.00,0,Custom,2013-01-19 05:59:00,